User: anonymous   Login
Location: Unspecified
(0.0000°N, 0.0000°E)
Time: 12:51:29
(UTC+00:00)
Language:

Amsat-Oscar-6 - Orbit

View from above orbital plane
View from above orbital plane
View from above satellite
View from above satellite

Ground track
Ground track

The orbit data is extracted from the following two-line orbital elements,

1  6236U 72082B   19143.90510177 -.00000022 +00000-0 +14634-3 0  9990
2  6236 101.8218 112.3918 0004563 043.7641 021.0573 12.53149645131629
Epoch (UTC): 23 May 2019 21:43:20
Eccentricity: 0.0004563
inclination: 101.8218°
perigee height: 1448 km
apogee height: 1455 km
right ascension of ascending node: 112.3918°
argument of perigee: 43.7641°
revolutions per day: 12.53149645
mean anomaly at epoch: 21.0573°
orbit number at epoch: 13162

The dashed part of the orbit path shows where the satellite is in the earth's shadow,  

DLR